Home   Weather   Greeley   Past weeks
Flag for USA

Past Weather in Greeley, Colorado, USA — Yesterday and Last 2 Weeks

Now
37 °F

Clear.


Feels Like: 32 °F
Forecast: 64 / 36 °F
Wind: 6 mph from Northeast

Location: Greeley / Weld

Current Time: Oct 18, 2019 at 6:28:49 am

Latest Report: Oct 18, 2019 at 5:56 am


Visibility: 10 mi

Pressure: 29.52 "Hg (24.75 "Hg at 1424m altitude)

Humidity: 57%

Dew Point: 23 °F

Location of GreeleyLocation

Past Weather in Greeley — Graph

°F

Greeley Temperature Yesterday

Maximum temperature yesterday: 77 °F (at 3:56 pm)
Minimum temperature yesterday: 30 °F (at 5:56 am)
Average temperature yesterday: 52 °F

High & Low Weather Summary for the Past Weeks

 TemperatureHumidityPressure
High81 °F (Oct 9, 2:56 pm)93% (Oct 4, 5:56 am)30.47 "Hg (Oct 4, 5:56 am)
Low13 °F (Oct 11, 6:56 am)7% (Oct 13, 3:56 pm)29.49 "Hg (Oct 9, 2:56 pm)
Average46 °F50%30.06 "Hg
* Reported Oct 3 4:56 am — Oct 18 4:56 am, Greeley. Weather by CustomWeather, © 2019

Note: Actual official high and low records may vary slightly from our data, if they occured in-between our weather recording intervals... More about our weather records

Advertising

Greeley Weather History for the Previous 24 Hours

Scroll right to see more
 ConditionsComfort  
Time TempWeatherWind HumidityBarometerVisibility
4:56 am
Fri, Oct 18
35 °FClear.3 mph61%29.51 "Hg10 mi
3:56 am38 °FClear.5 mph58%29.49 "Hg10 mi
2:56 am41 °FClear.5 mph53%29.50 "Hg10 mi
1:56 am40 °FClear.5 mph53%29.51 "Hg10 mi
12:56 am40 °FClear.No wind51%29.52 "Hg10 mi
11:56 pm
Thu, Oct 17
45 °FClear.12 mph48%29.53 "Hg10 mi
10:56 pm47 °FClear.12 mph44%29.54 "Hg10 mi
9:56 pm47 °FClear.12 mph46%29.57 "Hg10 mi
8:56 pm51 °FClear.9 mph35%29.57 "Hg10 mi
7:56 pm52 °FClear.8 mph34%29.62 "Hg10 mi
6:56 pm58 °FClear.5 mph32%29.62 "Hg8 mi
5:56 pm65 °FSunny.8 mph24%29.60 "Hg8 mi
4:56 pm74 °FSunny.5 mph15%29.60 "Hg6 mi
3:56 pm77 °FSunny.No wind12%29.61 "Hg10 mi
2:56 pm76 °FSunny.7 mph14%29.63 "Hg10 mi
1:56 pm74 °FSunny.6 mph14%29.66 "Hg10 mi
12:56 pm73 °FSunny.3 mph15%29.71 "Hg10 mi
11:56 am67 °FSunny.5 mph22%29.77 "Hg10 mi
10:56 am62 °FSunny.5 mph26%29.81 "Hg10 mi
9:56 am52 °FSunny.5 mph41%29.88 "Hg10 mi
7:56 am34 °FSunny.3 mph73%29.91 "Hg10 mi
6:56 am31 °FClear.No wind79%29.92 "Hg10 mi
Weather by CustomWeather, © 2019

See weather overview